Flag for U.S.A. Weather past 2 weeks in Daytona Beach, Florida, U.S.A.

66 °F

Passing clouds.

Feels Like: 66 °F
Forecast: 68 / 76 °F
Wind: 5 mph from North

Location: Daytona Beach Regional Airport

Current Time: Nov 28, 2015 at 7:22:36 AM

Latest Report: Nov 28, 2015 at 6:53 AM

Visibility: 10 mi

Pressure: 30.19 "Hg

Humidity: 93%

Dew point: 64 °F

Location of Daytona BeachLocation

Historic Weather in Daytona Beach — Graph


Daytona Beach temperature yesterday

Maximum temperature yesterday: 78 °F (at 11:53 AM)
Minimum temperature yesterday: 67 °F (at 11:53 PM)
Average temperature yesterday: 72 °F

Past Weeks' High & Low Weather Summary

High82 °F (Nov 17, 11:53 AM)100% (Nov 13, 6:53 AM)30.43 "Hg (Nov 13, 6:53 AM)
Low45 °F (Nov 23, 6:53 AM)46% (Nov 24, 11:53 AM)29.83 "Hg (Nov 22, 3:53 AM)
Average71 °F74%30.14 "Hg
* Reported Nov 13 5:53 AM — Nov 28 5:53 AM, Daytona Beach, Weather by CustomWeather, © 2015

Note: Actual official high and low records may vary slightly from our data, if they occured in-between our weather recording intervals... More about our weather records


Daytona Beach weather history for previous 24 hours

Time TempWeatherWind HumidityBarometerVisibility
5:53 AM
Sat, Nov 28
68 °FPassing clouds.6 mph90%30.18 "Hg10 mi
4:53 AM68 °FPassing clouds.8 mph93%30.17 "Hg10 mi
3:53 AM66 °FClear.7 mph93%30.18 "Hg8 mi
2:53 AM66 °FClear.6 mph93%30.19 "Hg8 mi
1:53 AM66 °FPassing clouds.3 mph96%30.19 "Hg8 mi
12:53 AM66 °FPassing clouds.6 mph96%30.21 "Hg7 mi
11:53 PM
Fri, Nov 27
67 °FPassing clouds.8 mph97%30.22 "Hg8 mi
10:53 PM69 °FPassing clouds.10 mph93%30.22 "Hg9 mi
9:53 PM70 °FPassing clouds.5 mph87%30.23 "Hg10 mi
8:53 PM71 °FPassing clouds.10 mph78%30.23 "Hg10 mi
7:53 PM70 °FPassing clouds.10 mph81%30.23 "Hg10 mi
6:53 PM71 °FClear.9 mph71%30.22 "Hg10 mi
5:53 PM72 °FPassing clouds.13 mph71%30.22 "Hg10 mi
4:53 PM74 °FScattered clouds.15 mph69%30.23 "Hg10 mi
3:53 PM75 °FScattered clouds.16 mph66%30.24 "Hg10 mi
2:53 PM77 °FPassing clouds.17 mph64%30.24 "Hg10 mi
1:53 PM78 °FPassing clouds.17 mph60%30.26 "Hg10 mi
12:53 PM78 °FPassing clouds.17 mph62%30.28 "Hg10 mi
11:53 AM78 °FPassing clouds.14 mph62%30.29 "Hg10 mi
10:53 AM76 °FPassing clouds.20 mph64%30.32 "Hg10 mi
9:53 AM76 °FPassing clouds.15 mph67%30.32 "Hg10 mi
8:53 AM74 °FPassing clouds.16 mph69%30.32 "Hg10 mi
7:53 AM71 °FPassing clouds.8 mph73%30.31 "Hg10 mi
Weather by CustomWeather, © 2015

See weather overviewHow to use our weather pages